Location: Cosy Dell
(34.2789°N, 117.4537°W)
Time: 21:19:41
(UTC+00:00)

H-2A R/B (2) - Pass Details

Date: 14 July 2020
Orbit: 454 x 34388 km, 28.4° (Epoch: 12 August)

Event Time Altitude Azimuth Distance (km) Brightness Sun altitude
Exits shadow 10:32:10 18° 139° (SE) 1,547 3.5 -22.9°
Drops below altitude 10° 10:33:21 10° 119° (ESE) 1,810 4.1 -22.8°
Sets 10:35:07 0° 102° (ESE) 2,491 5.1 -22.5°
